GW1603 Weather Reports


Display with metric or nautical units.
time (UTC)temp
F
wind
direction
speed
MPH
gust
MPH
rain 1hr
in
rain 24hr
in
rain mn
in
humidity
%
barometer
mb
20260510191658 71 69 3.0 3.0 0.00 0.00 0.00 51 1018.4
20260510191155 71 15 4.0 6.0 0.00 0.00 0.00 54 1018.4
20260510190652 71 68 4.0 5.0 0.00 0.00 0.00 49 1018.4
20260510190150 70 0 2.0 2.0 0.00 0.00 0.00 54 1018.4
20260510185646 71 20 2.0 3.0 0.00 0.00 0.00 50 1018.3
20260510185144 71 73 5.0 8.0 0.00 0.00 0.00 55 1018.3
20260510184641 71 327 2.0 7.0 0.00 0.00 0.00 54 1018.5
20260510184137 71 69 2.0 5.0 0.00 0.00 0.00 57 1018.5
20260510183632 71 347 3.0 7.0 0.00 0.00 0.00 53 1018.5
20260510183127 71 61 1.0 3.0 0.00 0.00 0.00 59 1018.6
20260510182625 70 56 2.0 3.0 0.00 0.00 0.00 56 1018.5
20260510182120 70 43 1.0 5.0 0.00 0.00 0.00 57 1018.7
20260510181617 70 84 4.0 6.0 0.00 0.00 0.00 54 1018.4
20260510181114 70 35 3.0 6.0 0.00 0.00 0.00 56 1018.4
20260510180610 70 41 3.0 5.0 0.00 0.00 0.00 58 1018.6
20260510180108 69 78 1.0 3.0 0.00 0.00 0.00 57 1018.4
20260510175603 69 65 2.0 7.0 0.00 0.00 0.00 57 1018.4
20260510175059 69 1 2.0 5.0 0.00 0.00 0.00 57 1018.3
20260510174557 69 349 3.0 3.0 0.00 0.00 0.00 61 1018.4
20260510174054 69 353 4.0 5.0 0.00 0.00 0.00 56 1018.2
20260510173549 69 68 3.0 7.0 0.00 0.00 0.00 57 1018.5
20260510173047 69 81 5.0 6.0 0.00 0.00 0.00 55 1018.2
20260510172542 69 44 3.0 5.0 0.00 0.00 0.00 57 1018.1
20260510172039 69 85 3.0 6.0 0.00 0.00 0.00 58 1018.2
20260510171535 69 54 4.0 5.0 0.00 0.00 0.00 58 1018.3
20260510171032 69 355 2.0 8.0 0.00 0.00 0.00 58 1018.3
20260510170523 69 351 3.0 8.0 0.00 0.00 0.00 59 1018.3
20260510170020 69 54 2.0 10.0 0.00 0.00 0.00 64 1018.3
20260510165515 69 2 7.0 9.0 0.00 0.00 0.00 59 1018.1
20260510165012 68 70 5.0 7.0 0.00 0.00 0.00 61 1018.3
20260510164509 68 92 3.0 8.0 0.00 0.00 0.00 64 1018.2
20260510164005 68 68 3.0 6.0 0.00 0.00 0.00 63 1018.3
20260510163501 68 12 1.0 3.0 0.00 0.00 0.00 67 1018.3
20260510162955 68 66 2.0 8.0 0.00 0.00 0.00 65 1018.4
20260510162447 67 74 2.0 7.0 0.00 0.00 0.00 70 1018.6
20260510161943 67 76 4.0 7.0 0.00 0.00 0.00 66 1018.6
20260510161438 67 41 4.0 5.0 0.00 0.00 0.00 72 1018.5
20260510160936 67 38 3.0 5.0 0.00 0.00 0.00 67 1018.6
20260510160432 67 81 2.0 5.0 0.00 0.00 0.00 69 1018.6
20260510155925 67 79 1.0 5.0 0.00 0.00 0.00 69 1018.6
20260510155423 67 71 2.0 3.0 0.00 0.00 0.00 69 1018.4
20260510154919 67 71 1.0 3.0 0.00 0.00 0.00 71 1018.5
20260510154415 67 69 3.0 6.0 0.00 0.00 0.00 67 1018.2
20260510153909 66 48 1.0 5.0 0.00 0.00 0.00 69 1018.3
20260510153406 66 39 2.0 7.0 0.00 0.00 0.00 70 1018.3
20260510152902 66 63 3.0 6.0 0.00 0.00 0.00 66 1018.2
20260510152359 66 40 6.0 9.0 0.00 0.00 0.00 67 1018.3
20260510151855 66 26 3.0 5.0 0.00 0.00 0.00 70 1018.2
20260510151354 66 30 5.0 8.0 0.00 0.00 0.00 69 1018.2
20260510150849 66 63 3.0 5.0 0.00 0.00 0.00 71 1018.1
20260510150345 66 338 1.0 3.0 0.00 0.00 0.00 72 1017.9
20260510145841 66 67 4.0 6.0 0.00 0.00 0.00 72 1017.7
20260510145338 66 81 3.0 3.0 0.00 0.00 0.00 73 1017.7
20260510144835 65 58 2.0 8.0 0.00 0.00 0.00 72 1017.7
20260510144331 64 24 4.0 6.0 0.00 0.00 0.00 75 1017.7
20260510143831 64 68 3.0 3.0 0.00 0.00 0.00 76 1017.5
20260510143327 64 2 3.0 6.0 0.00 0.00 0.00 75 1017.5
20260510142825 64 62 4.0 6.0 0.00 0.00 0.00 75 1017.5
20260510142321 64 30 1.0 5.0 0.00 0.00 0.00 77 1017.3
20260510141818 64 61 3.0 5.0 0.00 0.00 0.00 77 1017.3
20260510141316 64 75 3.0 5.0 0.00 0.00 0.00 76 1017.2
20260510140813 64 72 3.0 6.0 0.00 0.00 0.00 77 1017.0
20260510140308 64 56 2.0 3.0 0.00 0.00 0.00 78 1016.8
20260510135802 64 33 2.0 3.0 0.00 0.00 0.00 77 1016.8
20260510135258 64 31 1.0 3.0 0.00 0.00 0.00 78 1016.8
20260510134756 63 0 0.0 2.0 0.00 0.00 0.00 79 1016.9
20260510134253 63 335 0.0 3.0 0.00 0.00 0.00 79 1016.9
20260510133748 63 37 1.0 3.0 0.00 0.00 0.00 80 1016.8
20260510133244 63 36 1.0 2.0 0.00 0.00 0.00 80 1016.7
20260510132740 62 334 1.0 2.0 0.00 0.00 0.00 80 1016.6
20260510132239 62 30 0.0 3.0 0.00 0.00 0.00 79 1016.5
20260510131734 62 341 1.0 2.0 0.00 0.00 0.00 78 1016.6
20260510131233 62 4 1.0 2.0 0.00 0.00 0.00 78 1016.4
20260510130729 62 344 1.0 2.0 0.00 0.00 0.00 77 1016.2
20260510130226 62 20 2.0 5.0 0.00 0.00 0.00 76 1016.4
20260510125722 62 351 1.0 2.0 0.00 0.00 0.00 78 1016.5
20260510125218 63 13 2.0 2.0 0.00 0.00 0.00 77 1016.3
20260510124715 63 315 1.0 2.0 0.00 0.00 0.00 78 1016.2
20260510124213 62 320 1.0 2.0 0.00 0.00 0.00 76 1016.2
20260510123708 62 319 1.0 1.0 0.00 0.00 0.00 79 1015.9
20260510123204 62 315 0.0 1.0 0.00 0.00 0.00 77 1016.2
20260510122700 62 323 0.0 2.0 0.00 0.00 0.00 76 1016.1
20260510122156 62 341 2.0 2.0 0.00 0.00 0.00 76 1015.9
20260510121647 62 319 0.0 1.0 0.00 0.00 0.00 76 1015.7
20260510121145 62 314 0.0 1.0 0.00 0.00 0.00 74 1015.8
20260510120642 62 316 0.0 1.0 0.00 0.00 0.00 74 1015.6
20260510120138 62 346 2.0 2.0 0.00 0.00 0.00 74 1015.5
20260510115634 64 341 2.0 3.0 0.00 0.00 0.00 74 1015.4
20260510115133 64 343 1.0 2.0 0.00 0.00 0.00 73 1015.2
20260510114628 64 304 0.0 0.0 0.00 0.00 0.00 70 1014.9
20260510114124 64 298 0.0 1.0 0.00 0.00 0.00 69 1015.0
20260510113620 64 300 0.0 1.0 0.00 0.00 0.00 71 1015.1
20260510113117 63 271 0.0 1.0 0.00 0.00 0.00 71 1014.7
20260510112614 63 282 0.0 1.0 0.00 0.00 0.00 71 1014.8
20260510112110 63 277 0.0 1.0 0.00 0.00 0.00 71 1014.8
20260510111607 64 282 0.0 1.0 0.00 0.00 0.00 70 1014.7
20260510111102 64 278 0.0 1.0 0.00 0.00 0.00 69 1014.8
20260510110558 64 277 0.0 0.0 0.00 0.00 0.00 68 1015.0
20260510110055 64 311 0.0 1.0 0.00 0.00 0.00 68 1014.7
20260510105551 64 311 1.0 1.0 0.00 0.00 0.00 68 1014.5
20260510105045 64 294 0.0 0.0 0.00 0.00 0.00 68 1014.5
20260510104542 64 299 0.0 0.0 0.00 0.00 0.00 68 1014.4
20260510104039 64 292 0.0 1.0 0.00 0.00 0.00 68 1014.3
20260510103536 64 286 0.0 0.0 0.00 0.00 0.00 68 1014.3
20260510103032 64 311 1.0 1.0 0.00 0.00 0.00 67 1014.1
20260510102528 64 312 0.0 3.0 0.00 0.00 0.00 67 1014.0
20260510102024 64 307 0.0 1.0 0.00 0.00 0.00 67 1014.0
20260510101522 64 308 0.0 2.0 0.00 0.00 0.00 67 1013.9
20260510101021 63 303 0.0 2.0 0.00 0.00 0.00 68 1014.0
20260510100516 63 299 0.0 2.0 0.00 0.00 0.00 68 1013.8
20260510100014 62 318 0.0 1.0 0.00 0.00 0.00 70 1013.9
20260510095509 62 293 0.0 0.0 0.00 0.00 0.00 69 1013.7
20260510095008 61 312 0.0 0.0 0.00 0.00 0.00 70 1013.9
20260510094503 61 307 0.0 1.0 0.00 0.00 0.00 71 1013.8
20260510093959 60 300 0.0 0.0 0.00 0.00 0.00 73 1013.9
20260510093455 60 276 0.0 1.0 0.00 0.00 0.00 75 1014.1
20260510092951 61 283 0.0 0.0 0.00 0.00 0.00 73 1013.9
20260510092448 60 319 0.0 0.0 0.00 0.00 0.00 71 1014.1
20260510091942 60 317 0.0 0.0 0.00 0.00 0.00 72 1014.0
20260510091440 60 318 0.0 0.0 0.00 0.00 0.00 72 1014.0
20260510090936 60 322 0.0 0.0 0.00 0.00 0.00 72 1014.2
20260510090433 61 323 0.0 1.0 0.00 0.00 0.00 72 1014.4
20260510085928 60 313 1.0 2.0 0.00 0.00 0.00 71 1014.3
20260510085424 60 329 2.0 2.0 0.00 0.00 0.00 72 1014.5
20260510084919 61 332 2.0 2.0 0.00 0.00 0.00 71 1014.2
20260510084417 61 317 1.0 2.0 0.00 0.00 0.00 71 1014.2
20260510083913 62 324 1.0 2.0 0.00 0.00 0.00 70 1013.8
20260510083410 62 322 3.0 5.0 0.00 0.00 0.00 68 1013.9
20260510082905 62 315 2.0 2.0 0.00 0.00 0.00 68 1013.8
20260510082403 61 319 2.0 3.0 0.00 0.00 0.00 69 1013.6
20260510081902 61 326 1.0 2.0 0.00 0.00 0.00 71 1013.5
20260510081358 61 336 2.0 3.0 0.00 0.00 0.00 71 1013.6
20260510080855 63 345 1.0 2.0 0.00 0.00 0.00 69 1013.4
20260510080348 63 307 1.0 3.0 0.00 0.00 0.00 68 1013.3
20260510075846 61 313 0.0 1.0 0.00 0.00 0.00 70 1013.4
20260510075344 61 298 0.0 2.0 0.00 0.00 0.00 71 1013.4
20260510074840 61 356 2.0 3.0 0.00 0.00 0.00 71 1013.6
20260510074337 61 347 2.0 3.0 0.00 0.00 0.00 68 1013.4
20260510073833 60 338 1.0 1.0 0.00 0.00 0.00 73 1013.1
20260510073323 60 294 0.0 0.0 0.00 0.00 0.00 71 1013.1
20260510072820 61 292 0.0 0.0 0.00 0.00 0.00 71 1012.9
20260510072317 61 281 0.0 1.0 0.00 0.00 0.00 69 1013.0
20260510071813 61 264 0.0 1.0 0.00 0.00 0.00 68 1013.1
20260510071309 62 292 0.0 1.0 0.00 0.00 0.00 68 1013.2
20260510070808 62 287 1.0 1.0 0.00 0.00 0.00 66 1012.9
20260510070259 62 268 0.0 1.0 0.00 0.00 0.00 67 1013.2
20260510065758 63 255 1.0 2.0 0.00 0.00 0.00 65 1013.2
20260510065250 63 278 0.0 2.0 0.00 0.00 0.00 65 1013.2
20260510064747 63 275 0.0 1.0 0.00 0.00 0.00 64 1013.1
20260510064244 63 225 2.0 2.0 0.00 0.00 0.00 64 1013.2
20260510063740 63 217 1.0 1.0 0.00 0.00 0.00 65 1013.1
20260510063237 63 235 1.0 2.0 0.00 0.00 0.00 66 1013.1
20260510062733 64 226 1.0 2.0 0.00 0.00 0.00 63 1013.0
20260510062229 64 252 1.0 6.0 0.00 0.00 0.00 61 1013.1
20260510061725 64 268 1.0 2.0 0.00 0.00 0.00 63 1013.1
20260510061222 65 258 1.0 3.0 0.00 0.00 0.00 61 1013.1
20260510060718 65 256 0.0 2.0 0.00 0.00 0.00 60 1013.1
20260510060215 65 274 0.0 3.0 0.00 0.00 0.00 59 1013.1
20260510055712 64 269 2.0 5.0 0.00 0.00 0.00 61 1013.4
20260510055210 65 273 1.0 3.0 0.00 0.00 0.00 60 1013.3
20260510054705 64 281 1.0 3.0 0.00 0.00 0.00 62 1013.2
20260510054201 64 276 1.0 3.0 0.00 0.00 0.00 63 1013.0
20260510053700 64 223 1.0 2.0 0.00 0.00 0.00 63 1013.1
20260510053157 64 262 1.0 2.0 0.00 0.00 0.00 62 1013.1
20260510052653 63 238 1.0 2.0 0.00 0.00 0.00 63 1012.8
20260510052149 64 215 0.0 2.0 0.00 0.00 0.00 62 1012.9
20260510051645 63 227 1.0 2.0 0.00 0.00 0.00 63 1012.7
20260510051142 63 243 1.0 2.0 0.00 0.00 0.00 64 1012.5
20260510050639 63 223 1.0 3.0 0.00 0.00 0.00 65 1012.6
20260510050136 63 217 1.0 2.0 0.00 0.00 0.00 65 1012.6
20260510045633 63 241 1.0 2.0 0.00 0.08 0.08 68 1012.6
20260510045129 62 228 1.0 2.0 0.00 0.08 0.08 68 1012.7
20260510044625 62 234 1.0 2.0 0.00 0.08 0.08 69 1012.7
20260510044123 62 229 1.0 1.0 0.00 0.08 0.08 68 1012.7
20260510043619 63 240 1.0 1.0 0.00 0.08 0.08 68 1012.8
20260510043115 63 243 0.0 2.0 0.00 0.08 0.08 68 1012.7
20260510042613 63 221 1.0 1.0 0.00 0.08 0.08 66 1012.6
20260510042109 63 243 1.0 2.0 0.00 0.08 0.08 66 1012.6
20260510041606 63 255 0.0 2.0 0.00 0.08 0.08 70 1012.7
20260510041103 63 249 0.0 1.0 0.00 0.08 0.08 67 1012.7
20260510040600 63 238 1.0 1.0 0.00 0.08 0.08 69 1012.7
20260510040056 63 246 1.0 1.0 0.00 0.08 0.08 70 1012.6
20260510035552 63 249 1.0 1.0 0.00 0.08 0.08 68 1012.5
20260510035052 63 249 1.0 2.0 0.00 0.08 0.08 69 1012.4
20260510034550 63 245 1.0 1.0 0.00 0.08 0.08 70 1012.6
20260510034047 63 239 1.0 1.0 0.00 0.08 0.08 69 1012.5
20260510033543 63 245 0.0 1.0 0.00 0.08 0.08 73 1012.4
20260510033041 63 241 0.0 1.0 0.00 0.08 0.08 69 1012.4
20260510032538 63 245 1.0 1.0 0.00 0.08 0.08 73 1012.5
20260510032033 63 247 0.0 1.0 0.00 0.08 0.08 73 1012.4
20260510031528 63 250 1.0 1.0 0.00 0.08 0.08 73 1012.3
20260510031024 63 253 0.0 0.0 0.00 0.08 0.08 72 1012.3
20260510030520 63 253 0.0 1.0 0.00 0.08 0.08 74 1012.3
20260510030017 63 255 0.0 1.0 0.00 0.08 0.08 75 1012.3
20260510025514 64 254 0.0 1.0 0.00 0.08 0.08 74 1012.3
20260510025011 64 252 1.0 1.0 0.00 0.08 0.08 72 1012.0
20260510024502 64 259 1.0 1.0 0.00 0.08 0.08 69 1012.2
20260510023957 64 263 0.0 1.0 0.00 0.08 0.08 69 1012.0
20260510023449 64 252 0.0 1.0 0.00 0.08 0.08 69 1012.0
20260510022946 65 253 0.0 1.0 0.00 0.08 0.08 68 1011.9
20260510022445 65 252 1.0 1.0 0.00 0.08 0.08 69 1011.6
20260510021944 65 256 0.0 0.0 0.00 0.08 0.08 68 1011.5
20260510021442 65 259 0.0 0.0 0.00 0.08 0.08 69 1011.7
20260510020938 65 259 0.0 0.0 0.00 0.08 0.08 67 1011.5
20260510020433 65 258 0.0 1.0 0.00 0.08 0.08 69 1011.5
20260510015929 66 252 1.0 1.0 0.00 0.08 0.08 68 1011.2
20260510015425 66 265 0.0 0.0 0.00 0.08 0.08 68 1011.4
20260510014920 66 265 0.0 1.0 0.00 0.08 0.08 69 1011.3
20260510014418 66 265 0.0 0.0 0.00 0.08 0.08 69 1011.2
20260510013914 67 271 0.0 0.0 0.00 0.08 0.08 68 1011.1
20260510013409 67 271 0.0 1.0 0.00 0.08 0.08 68 1011.0
20260510012905 67 261 0.0 1.0 0.00 0.08 0.08 67 1011.0
20260510012400 68 266 0.0 1.0 0.00 0.08 0.08 67 1010.9
20260510011854 68 272 0.0 1.0 0.00 0.08 0.08 66 1011.1
20260510011350 68 275 0.0 0.0 0.00 0.08 0.08 66 1011.0
20260510010846 69 249 1.0 1.0 0.00 0.08 0.08 65 1010.8
20260510010344 69 271 0.0 1.0 0.00 0.08 0.08 63 1010.8
20260510005840 70 273 0.0 0.0 0.00 0.08 0.08 62 1010.8
20260510005337 71 270 1.0 1.0 0.00 0.08 0.08 60 1010.6
20260510004835 71 291 0.0 0.0 0.00 0.08 0.08 60 1010.4
20260510004332 72 291 0.0 1.0 0.00 0.08 0.08 59 1010.3
20260510003829 72 282 0.0 0.0 0.00 0.08 0.08 58 1010.2
20260510003326 73 283 0.0 1.0 0.00 0.08 0.08 56 1010.1
20260510002825 73 282 0.0 0.0 0.00 0.08 0.08 56 1010.1
20260510002322 74 285 0.0 1.0 0.00 0.08 0.08 53 1010.1
20260510001819 75 261 1.0 2.0 0.00 0.08 0.08 53 1010.1
20260510001317 75 270 1.0 2.0 0.00 0.08 0.08 52 1010.0
20260510000813 75 279 0.0 1.0 0.00 0.08 0.08 52 1010.0
20260510000311 76 276 0.0 1.0 0.00 0.08 0.08 52 1010.1
20260509235808 76 259 1.0 2.0 0.00 0.08 0.08 51 1010.1
20260509235306 76 274 1.0 1.0 0.00 0.08 0.08 50 1010.2
20260509234800 77 265 0.0 1.0 0.00 0.08 0.08 50 1010.1
20260509234256 77 319 0.0 2.0 0.00 0.08 0.08 49 1010.2
20260509233755 77 304 0.0 1.0 0.00 0.08 0.08 49 1010.1
20260509233252 78 242 1.0 1.0 0.00 0.08 0.08 46 1010.2
20260509232748 78 241 1.0 2.0 0.00 0.08 0.08 44 1010.2
20260509232246 78 240 1.0 3.0 0.00 0.08 0.08 45 1010.0
20260509231742 79 311 0.0 1.0 0.00 0.08 0.08 45 1010.0
20260509231239 79 339 1.0 1.0 0.00 0.08 0.08 42 1010.1
20260509230736 79 313 1.0 2.0 0.00 0.08 0.08 41 1010.0
20260509230233 79 229 2.0 3.0 0.00 0.08 0.08 38 1010.1
20260509225728 80 301 0.0 0.0 0.00 0.08 0.08 39 1009.9
20260509225224 80 301 0.0 1.0 0.00 0.08 0.08 35 1009.9
20260509224720 80 275 0.0 1.0 0.00 0.08 0.08 42 1009.7
20260509224217 80 316 2.0 3.0 0.00 0.08 0.08 40 1009.9
20260509223714 80 337 1.0 3.0 0.00 0.08 0.08 36 1009.9
20260509223211 80 310 0.0 1.0 0.00 0.08 0.08 42 1009.9
20260509222708 81 322 2.0 5.0 0.00 0.08 0.08 41 1009.7
20260509222203 80 317 1.0 2.0 0.00 0.08 0.08 37 1009.8
20260509221659 80 351 1.0 3.0 0.00 0.08 0.08 39 1009.7
20260509221155 80 327 1.0 2.0 0.00 0.08 0.08 41 1009.8
20260509220651 80 294 3.0 5.0 0.00 0.08 0.08 40 1009.7
20260509220147 80 338 1.0 3.0 0.00 0.08 0.08 37 1009.9
20260509215643 80 274 0.0 2.0 0.00 0.08 0.08 41 1009.8
20260509215141 81 316 0.0 1.0 0.00 0.08 0.08 38 1009.9
20260509214637 81 284 1.0 2.0 0.00 0.08 0.08 39 1009.9
20260509214134 81 294 0.0 3.0 0.00 0.08 0.08 36 1009.8
20260509213631 80 333 1.0 5.0 0.00 0.08 0.08 40 1009.8
20260509213121 80 311 3.0 3.0 0.00 0.08 0.08 38 1009.8
20260509212620 80 333 4.0 7.0 0.00 0.08 0.08 35 1010.0
20260509212116 80 314 1.0 2.0 0.00 0.08 0.08 34 1010.0
20260509211612 80 322 1.0 3.0 0.00 0.08 0.08 39 1010.0
20260509211109 82 297 5.0 6.0 0.00 0.08 0.08 35 1009.9
20260509210605 82 252 1.0 2.0 0.00 0.08 0.08 35 1010.0
20260509205601 82 315 2.0 3.0 0.00 0.08 0.08 35 1010.1
20260509205051 81 333 2.0 5.0 0.00 0.08 0.08 34 1010.1
20260509204548 81 318 2.0 3.0 0.00 0.08 0.08 36 1010.1
20260509204044 81 312 0.0 1.0 0.00 0.08 0.08 36 1010.1
20260509203540 80 338 3.0 5.0 0.00 0.08 0.08 34 1010.3
20260509203038 82 18 3.0 5.0 0.00 0.08 0.08 32 1010.3
20260509202533 81 334 1.0 2.0 0.00 0.08 0.08 34 1010.3
20260509202028 81 265 3.0 3.0 0.00 0.08 0.08 41 1010.4
20260509201523 82 312 2.0 3.0 0.00 0.08 0.08 35 1010.3
20260509201021 82 286 1.0 2.0 0.00 0.08 0.08 32 1010.5
20260509200516 82 342 0.0 3.0 0.00 0.08 0.08 35 1010.6
20260509200012 81 349 0.0 5.0 0.00 0.08 0.08 33 1010.5
20260509195508 81 314 3.0 3.0 0.00 0.08 0.08 39 1010.4
20260509195002 80 264 1.0 3.0 0.00 0.08 0.08 35 1010.7
20260509194457 80 306 4.0 8.0 0.00 0.08 0.08 42 1010.6
20260509193954 80 332 3.0 5.0 0.00 0.08 0.08 37 1010.6
20260509193449 80 331 5.0 7.0 0.00 0.08 0.08 37 1010.9
20260509192945 80 354 2.0 7.0 0.00 0.08 0.08 41 1010.8
20260509192442 80 126 2.0 5.0 0.00 0.08 0.08 38 1010.9
20260509191937 79 337 3.0 3.0 0.00 0.08 0.08 38 1010.8